Regional Weather Roundup
Issued by NWS

Home | Current Version | Previous Version | Graphics & Text | Print | Product List | Glossary On
Versions: 1 2 3 4 5 6 7 8 9 10 11 12 13 14 15 16 17 18 19 20 21 22 23 24 25 26 27 28 29 30 31 32 33 34 35 36 37 38 39 40 41 42 43 44 45 46 47 48 49 50
000
ASUS43 KIND 281159
RWRIN

WEATHER ROUNDUP FOR INDIANA
NATIONAL WEATHER SERVICE INDIANAPOLIS IN
800 AM EDT FRI JUL 28 2017

NOTE: "FAIR" INDICATES FEW OR NO CLOUDS BELOW 12,000 FEET WITH NO
SIGNIFICANT WEATHER AND/OR OBSTRUCTIONS TO VISIBILITY.

* - STATION DOES NOT REPORT WEATHER SUCH AS PRECIPITATION OR FOG.

+ - STATION NOT QUALITY CONTROLLED BY THE NATIONAL WEATHER SERVICE.
    USE DATA WITH CAUTION...ESPECIALLY DEWPOINT AND RELATIVE
    HUMIDITY OBSERVATIONS.

INZ001>003-010>013-019-020-281300-
NORTHWEST INDIANA

CITY           SKY/WX    TMP DP  RH WIND       PRES   REMARKS
GARY /AIRPORT/ PTSUNNY   72  64  78 NE8       29.95R
MICHIGAN CITY+ MOSUNNY   66  64  94 CALM      29.95R
MONTICELLO +   CLOUDY    69  67  95 NE9       29.91R
6HR MIN TEMP:  68; 6HR MAX TEMP:  70;

RENSSELAER +   CLOUDY    68  63  83 NE9       29.92R

$$

LMZ046-743>745-281300-
SOUTHERN LAKE MICHIGAN

STATION/POSITION TIME  TEMP    WIND        PRES    WAVE
                       AIR SEA DIR/SP/G            HT
                 (UTC) (F)     (DEG/KT/KT) (MB)    (FT)
BURNS HARBOR     1140   69      90/  9/ 14 1014.2R
MICHIGAN CITY    1130   67      60/  6/  8   N/A
5NW MICH CITY    1150   69 73  100/  8/ 10   N/A     3

$$

INZ004-005-014>016-021>024-281300-
NORTH CENTRAL INDIANA

CITY           SKY/WX    TMP DP  RH WIND       PRES   REMARKS
ELKHART        CLOUDY    66  63  88 NE5       29.95R
GOSHEN         CLOUDY    65  60  84 N3        29.95R
6HR MIN TEMP:  64; 6HR MAX TEMP:  74; 6HR PCP:  0.21;

SOUTH BEND     MOSUNNY   66  65  96 MISG      29.95S
6HR MIN TEMP:  63; 6HR MAX TEMP:  72; 6HR PCP:  0.53;

WARSAW +       CLOUDY    66  61  82 E10       29.93S

$$

INZ006>009-017-018-025>027-281300-
NORTHEAST INDIANA

CITY           SKY/WX    TMP DP  RH WIND       PRES   REMARKS
AUBURN +       CLOUDY    64  59  82 N3        29.94R
FORT WAYNE     PTSUNNY   66  60  81 NE8       29.92R
6HR MIN TEMP:  65; 6HR MAX TEMP:  73;

KENDALLVILLE + LGT RAIN  65  62  91 N7        29.96R

$$

INZ028-029-035-036-043>045-051>053-281300-
WEST CENTRAL INDIANA

CITY           SKY/WX    TMP DP  RH WIND       PRES   REMARKS
LAFAYETTE      CLOUDY    71  70  96 NE8       29.88S FOG
6HR MIN TEMP:  67; 6HR MAX TEMP:  71;

TERRE HAUTE    CLOUDY    70  67  90 N6        29.86R
6HR MIN TEMP:  69; 6HR MAX TEMP:  73;


$$

INZ030>032-037>040-046>048-054>057-064-065-281300-
CENTRAL INDIANA

CITY           SKY/WX    TMP DP  RH WIND       PRES   REMARKS
COLUMBUS       CLOUDY    72  72 100 NE5       29.84S
FRANKFORT +    CLOUDY    73  70  92 E7        29.91R FOG
6HR MIN TEMP:  71; 6HR MAX TEMP:  73;

INDIANAPOLIS   CLOUDY    74  72  93 NE10      29.85S
6HR MIN TEMP:  73; 6HR MAX TEMP:  74;

-EAGLE CREEK   CLOUDY    74  71  91 NE7       29.85S FOG
6HR MIN TEMP:  73; 6HR MAX TEMP:  75; 6HR PCP: TRACE;

KOKOMO +       PTSUNNY   69  66  90 NE8       29.92R
6HR MIN TEMP:  68; 6HR MAX TEMP:  72;

MT COMFORT *+  CLOUDY    72  70  94 NE6       29.87S
SHELBYVILLE    CLOUDY    74  70  87 NE6       29.85R
6HR MIN TEMP:  73; 6HR MAX TEMP:  74;


$$

INZ033-034-041-042-049-050-058-059-281300-
EAST CENTRAL INDIANA

CITY           SKY/WX    TMP DP  RH WIND       PRES   REMARKS
MUNCIE         CLOUDY    70  66  87 NE8       29.89S FOG
6HR MIN TEMP:  70; 6HR MAX TEMP:  74;

RICHMOND +     CLOUDY    68  66  94 E12       29.89S FOG

$$

INZ060-061-067>069-081>083-085>088-281300-
SOUTHWEST INDIANA

CITY           SKY/WX    TMP DP  RH WIND       PRES   REMARKS
EVANSVILLE     CLOUDY    76  74  93 N5        29.83R
6HR MIN TEMP:  74; 6HR MAX TEMP:  76; 6HR PCP:  0.11;

HUNTINGBURG *+ CLOUDY    75  74  96 NW6       29.83R
6HR MIN TEMP:  74; 6HR MAX TEMP:  75;


$$

INZ062-063-066-070>080-084-089>092-281300-
SOUTH CENTRAL AND SOUTHEAST INDIANA

CITY           SKY/WX    TMP DP  RH WIND       PRES   REMARKS
BLOOMINGTON    CLOUDY    75  71  87 N7        29.84S FOG
6HR MIN TEMP:  72; 6HR MAX TEMP:  75;

MADISON *+       N/A     73  72  94 CALM      29.85S

$$





USA.gov is the U.S. government's official web portal to all federal, state and local government web resources and services.